Flag for Germany Weather past 2 weeks in Hoyerswerda, Saxony, Germany

Now
44 °F

Overcast.


Feels Like: 42 °F
Forecast: 38 / 45 °F
Wind: 5 mph from Southwest

Location: Cottbus

Current Time: Mar 1, 2015 at 6:16:33 PM

Latest Report: Mar 1, 2015 at 6:00 PM


Visibility: 18 mi

Pressure: 29.63 "Hg

Humidity: 79%

Dew point: 38 °F

Location of HoyerswerdaLocation

Historic Weather in Hoyerswerda — Graph

°F

Hoyerswerda temperature yesterday

Maximum temperature yesterday: 46 °F (at 1:00 PM)
Minimum temperature yesterday: 29 °F (at 1:00 AM)
Average temperature yesterday: 38 °F

Past Weeks' High & Low Weather Summary

 TemperatureHumidityPressure
High52 °F (Feb 21, 3:00 PM)100% (Feb 18, 3:00 AM)30.75 "Hg (Feb 18, 3:00 AM)
Low23 °F (Feb 26, 7:00 AM)42% (Feb 26, 3:00 PM)29.41 "Hg (Feb 21, 3:00 PM)
Average37 °F78%30.04 "Hg
* Reported Feb 14 5:00 PM — Mar 1 5:00 PM, Hoyerswerda, Weather by CustomWeather, © 2015

Note: Actual official high and low records may vary slightly from our data, if they occured in-between our weather recording intervals... More about our weather records

Advertising

Hoyerswerda weather history for previous 24 hours

 ConditionsComfort  
Time TempWeatherWind HumidityBarometerVisibility
5:00 PM
Sun, Mar 1
45 °FOvercast.3 mph80%29.63 "Hg16 mi
4:00 PM44 °FOvercast.5 mph82%29.64 "Hg12 mi
3:00 PM42 °FOvercast.5 mph88%29.66 "Hg8 mi
2:00 PM40 °FDrizzle. Low clouds.5 mph91%29.67 "Hg3 mi
1:00 PM41 °FLow clouds.5 mph85%29.69 "Hg6 mi
12:00 PM41 °FLight rain. Overcast.5 mph73%29.71 "Hg6 mi
11:00 AM42 °FOvercast.3 mph62%29.73 "Hg10 mi
10:00 AM41 °FOvercast.6 mph66%29.75 "Hg8 mi
9:00 AM39 °FOvercast.6 mph71%29.78 "Hg6 mi
8:00 AM36 °FOvercast.5 mph79%29.81 "Hg5 mi
7:00 AM34 °FFog.3 mph83%29.84 "Hg4 mi
6:00 AM34 °FFog.5 mph84%29.86 "Hg4 mi
5:00 AM33 °FFog.3 mph84%29.88 "Hg4 mi
4:00 AM33 °FFog.3 mph85%29.91 "Hg4 mi
3:00 AM33 °FFog.3 mph87%29.94 "Hg4 mi
2:00 AM32 °FFog.3 mph87%29.97 "Hg4 mi
1:00 AM33 °FClear.2 mph86%29.99 "Hg6 mi
12:00 AM32 °FClear.2 mph87%30.02 "Hg6 mi
11:00 PM
Sat, Feb 28
33 °FClear.3 mph82%30.04 "Hg7 mi
10:00 PM35 °FClear.2 mph77%30.06 "Hg7 mi
9:00 PM35 °FClear.2 mph74%30.07 "Hg8 mi
8:00 PM35 °FClear.2 mph73%30.09 "Hg11 mi
7:00 PM37 °FClear.2 mph69%30.10 "Hg12 mi
6:00 PM40 °FClear.2 mph63%30.09 "Hg16 mi
Weather by CustomWeather, © 2015

See weather overviewHow to use our weather pages